Location: Garden of he Gods Recreation Area
(37.6010°N, 88.3780°W)
Time: 03:56:58
(UTC-06:00)

Amateur Radio Satellites - All Passes

Search period start: 23 January 2018 03:26
Search period end: 24 January 2018 03:26
Location: Garden of he Gods Recreation Area, 37.6010°N, 88.3780°W

Satellite Date Start Highest point End Downlink Frequencies (MHz)
Time Altitude Azimuth
ITUPSAT 1 23 Jan 03:27:38 03:31:51 31° 263° (W) 03:36:06 437.325
MOZHAYETS 4 23 Jan 03:37:50 03:40:08 14° 268° (W) 03:42:27
nSIGHT-1 23 Jan 03:39:03 03:39:48 11° 233° (SW) 03:40:35 .
CUBESAT XI-V 23 Jan 03:44:45 03:49:15 45° 261° (W) 03:53:44 437.345
DOVE 4 23 Jan 04:05:22 04:09:22 32° 98° (E) 04:13:33 437.250
BEESAT 23 Jan 04:08:26 04:10:13 12° 269° (W) 04:12:01 436.000
AO-7 23 Jan 04:10:58 04:19:12 63° 293° (WNW) 04:27:21 .
FALCONSAT 3 23 Jan 04:14:55 04:18:33 59° 174° (S) 04:22:10 435.103
M-CUBED/EXP-1 PRIME 23 Jan 04:15:19 04:17:30 17° 100° (E) 04:19:41 437.505
SO-50 23 Jan 04:31:27 04:35:53 86° 117° (ESE) 04:40:25 436.795
KKS-1 23 Jan 04:46:14 04:50:36 66° 258° (WSW) 04:55:01 437.445
STARS 23 Jan 04:55:04 04:59:19 56° 74° (ENE) 05:03:36 437.465
ITAMSAT 1 23 Jan 05:02:56 05:06:44 21° 295° (WNW) 05:10:32 435.822/435.867
XW-2F 23 Jan 05:09:25 05:11:51 16° 94° (E) 05:14:15 145.980 - 146.000
NUDT-PHONESAT 23 Jan 05:10:42 05:11:52 11° 92° (E) 05:13:03 437.300
CUTE-I 23 Jan 05:14:11 05:18:05 20° 94° (E) 05:21:57 437.470
XW-2D 23 Jan 05:20:42 05:23:54 26° 96° (E) 05:27:04 145.860 - 145.880
HO-68 23 Jan 05:29:04 05:33:20 17° 91° (E) 05:37:36 435.675
RS-15 23 Jan 05:36:46 05:45:07 22° 100° (E) 05:53:24 29.354- 29.394
XW-2B 23 Jan 05:38:06 05:41:40 42° 98° (E) 05:45:14 145.730 - 145.750
DOVE 4 23 Jan 05:43:29 05:46:52 22° 290° (WNW) 05:50:24 437.250
M-CUBED/EXP-1 PRIME 23 Jan 05:49:24 05:51:52 20° 295° (WNW) 05:54:19 437.505
FALCONSAT 3 23 Jan 05:53:53 05:57:27 51° 190° (S) 06:01:01 435.103
CUTE 1.7 + AOD 2 23 Jan 06:03:11 06:06:32 23° 95° (E) 06:09:52 437.475
STRAND 1 23 Jan 06:04:53 06:09:40 43° 71° (ENE) 06:14:28 437.568
AO-7 23 Jan 06:06:56 06:10:17 13° 312° (NW) 06:13:39 .
XW-2C 23 Jan 06:08:30 06:12:14 70° 284° (WNW) 06:15:56 145.795 - 145.815
LilacSat-2 23 Jan 06:09:36 06:13:20 61° 284° (WNW) 06:17:02 437.200
SO-50 23 Jan 06:15:07 06:16:59 12° 318° (NW) 06:18:51 436.795
STARS 23 Jan 06:34:38 06:35:58 11° 268° (W) 06:37:18 437.465
FO-29 23 Jan 06:35:19 06:41:37 42° 71° (ENE) 06:47:14 435.910
KAITUO 1B 23 Jan 06:36:11 06:39:41 42° 286° (WNW) 06:43:10 145.475/437.950
CUBEBUG 2 23 Jan 06:41:01 06:45:34 43° 98° (E) 06:50:02 437.445
UWE-3 23 Jan 06:41:32 06:45:16 24° 94° (E) 06:48:57 435.000/436.395/437.385
NUDT-PHONESAT 23 Jan 06:42:27 06:45:51 37° 286° (WNW) 06:49:13 437.300
XW-2F 23 Jan 06:42:46 06:45:57 27° 288° (WNW) 06:49:05 145.980 - 146.000
CUTE-I 23 Jan 06:53:14 06:58:18 45° 289° (WNW) 07:03:20 437.470
AAUSAT CUBESAT 2 23 Jan 06:54:48 06:57:57 21° 95° (E) 07:01:05 437.432
XW-2D 23 Jan 06:55:18 06:57:50 18° 291° (WNW) 07:00:22 145.860 - 145.880
ZACube-1 23 Jan 06:59:47 07:02:56 18° 93° (E) 07:06:01 437.345
AO-73 23 Jan 07:04:56 07:08:03 18° 93° (E) 07:11:05 145.935
XW-2B 23 Jan 07:14:08 07:15:25 11° 294° (WNW) 07:16:42 145.730 - 145.750
HO-68 23 Jan 07:14:34 07:21:44 80° 287° (WNW) 07:28:53 435.675
SEEDS 23 Jan 07:20:28 07:24:37 71° 285° (WNW) 07:28:44 437.485
BEESAT 3 23 Jan 07:23:19 07:24:08 11° 108° (ESE) 07:24:57 437.485
PCSat 23 Jan 07:31:00 07:33:06 12° 102° (ESE) 07:35:13 145.827
FALCONSAT 3 23 Jan 07:33:22 07:36:09 20° 204° (SSW) 07:38:55 435.103
Oscar 11 23 Jan 07:34:52 07:38:19 23° 95° (E) 07:41:44 .
CUTE 1.7 + AOD 2 23 Jan 07:38:49 07:42:17 25° 290° (WNW) 07:45:43 437.475
RS-15 23 Jan 07:43:36 07:55:57 89° 118° (ESE) 08:08:13 29.354- 29.394
STRAND 1 23 Jan 07:45:20 07:48:59 20° 266° (W) 07:52:42 437.568
XW-2A 23 Jan 07:55:23 07:58:43 72° 283° (WNW) 08:02:01 145.665 - 145.685
TIGRISAT 23 Jan 08:16:00 08:19:53 31° 70° (ENE) 08:23:51 435.000
UWE-3 23 Jan 08:17:36 08:21:41 31° 290° (WNW) 08:25:42 435.000/436.395/437.385
BEESAT 2 23 Jan 08:17:46 08:18:36 11° 107° (ESE) 08:19:26 435.950
YUBILEINY 23 Jan 08:18:13 08:24:28 21° 67° (ENE) 08:30:37 435.215
CUBEBUG 2 23 Jan 08:18:32 08:21:47 19° 293° (WNW) 08:25:01 437.445
FO-29 23 Jan 08:20:52 08:26:40 29° 263° (W) 08:31:58 435.910
AAUSAT CUBESAT 2 23 Jan 08:29:54 08:33:20 26° 289° (WNW) 08:36:45 437.432
UNISAT 6 23 Jan 08:31:33 08:35:50 50° 73° (ENE) 08:40:15 437.425
ZACube-1 23 Jan 08:35:07 08:39:18 37° 288° (WNW) 08:43:23 437.345
O/OREOS (USA 219) 23 Jan 08:35:33 08:38:24 16° 58° (ENE) 08:41:13 437.305
AO-73 23 Jan 08:40:13 08:44:22 37° 288° (WNW) 08:48:26 145.935
DELFI C3 23 Jan 08:41:21 08:44:25 21° 95° (E) 08:47:27 145.870
Max Valier Satellite 23 Jan 08:47:48 08:50:03 15° 93° (E) 08:52:16 145.860
BEESAT 3 23 Jan 08:57:13 09:01:08 57° 303° (WNW) 09:05:04 437.485
EO-88 23 Jan 09:00:22 09:02:15 14° 93° (E) 09:04:09 145.990 - 145.960
HO-68 23 Jan 09:04:51 09:08:19 14° 305° (NW) 09:11:47 435.675
PCSat 23 Jan 09:10:22 09:15:45 77° 298° (WNW) 09:21:12 145.827
Oscar 11 23 Jan 09:10:45 09:14:23 27° 290° (WNW) 09:17:59 .
PRISM 23 Jan 09:29:35 09:33:27 45° 73° (ENE) 09:37:20 437.425
BEESAT 2 23 Jan 09:51:49 09:55:46 57° 302° (WNW) 09:59:45 435.950
TIGRISAT 23 Jan 09:53:08 09:56:33 22° 266° (W) 10:00:04 435.000
POLYITAN 1 23 Jan 09:59:23 10:01:27 13° 65° (ENE) 10:03:31 437.675
RS-15 23 Jan 09:59:41 10:10:09 31° 323° (NW) 10:20:29 29.354- 29.394
UNISAT 6 23 Jan 10:10:43 10:12:50 13° 269° (W) 10:15:00 437.425
LO-87 23 Jan 10:11:13 10:12:44 12° 93° (E) 10:14:14 145.935 - 145.965
NANOSAT C BR1 23 Jan 10:11:43 10:14:20 16° 66° (ENE) 10:16:57 145.865
YUBILEINY 23 Jan 10:13:26 10:22:09 76° 266° (W) 10:30:46 435.215
O/OREOS (USA 219) 23 Jan 10:13:45 10:18:01 45° 254° (WSW) 10:22:18 437.305
ESTCUBE 1 23 Jan 10:14:48 10:16:45 13° 92° (E) 10:18:41 437.505/2401.250
DELFI C3 23 Jan 10:15:54 10:19:03 24° 290° (WNW) 10:22:12 145.870
AIST 2D 23 Jan 10:16:09 10:19:39 73° 77° (ENE) 10:23:10 435.315
JUGNU 23 Jan 10:20:13 10:22:46 13° 179° (S) 10:25:19 437.505
Max Valier Satellite 23 Jan 10:20:41 10:23:52 28° 288° (WNW) 10:27:02 145.860
QB50P2 23 Jan 10:27:25 10:31:09 31° 71° (ENE) 10:34:55 145.880/145.840
EO-88 23 Jan 10:32:44 10:35:57 30° 288° (WNW) 10:39:08 145.990 - 145.960
DUCHIFAT 1 23 Jan 10:52:15 10:56:10 39° 72° (ENE) 11:00:07 145.980
EO-79 23 Jan 10:56:47 11:00:56 62° 75° (ENE) 11:05:09 145.935-145.965
PCSat 23 Jan 10:57:55 11:00:04 12° 317° (NW) 11:02:12 145.827
PRISM 23 Jan 11:07:19 11:08:55 12° 268° (W) 11:10:31 437.425
SPROUT 23 Jan 11:13:42 11:15:30 12° 92° (E) 11:17:18 437.525
AO-85 23 Jan 11:17:05 11:20:58 60° 302° (WNW) 11:25:08 145.980
POLYITAN 1 23 Jan 11:32:39 11:36:45 48° 260° (W) 11:40:54 437.675
VELOX 1 23 Jan 11:38:21 11:40:11 12° 92° (E) 11:42:01 145.980
BUGSAT 1 23 Jan 11:42:49 11:46:25 31° 71° (ENE) 11:50:05 437.445
LO-87 23 Jan 11:42:54 11:46:13 34° 287° (WNW) 11:49:31 145.935 - 145.965
NANOSAT C BR1 23 Jan 11:45:45 11:49:40 39° 262° (W) 11:53:40 145.865
Oscar 19 23 Jan 11:47:52 11:52:10 27° 67° (ENE) 11:56:28 437.125/150
ESTCUBE 1 23 Jan 11:49:28 11:53:50 52° 286° (WNW) 11:58:09 437.505/2401.250
AO-91 23 Jan 11:50:46 11:53:12 19° 69° (ENE) 11:55:42 145.960
Gurwin Techsat 1B 23 Jan 11:56:23 12:00:37 25° 66° (ENE) 12:04:52 435.225
QB50P2 23 Jan 12:03:53 12:06:57 19° 266° (W) 12:10:02 145.880/145.840
JUGNU 23 Jan 12:09:34 12:10:53 11° 189° (S) 12:12:12 437.505
YUBILEINY 23 Jan 12:14:26 12:17:19 12° 285° (WNW) 12:20:11 435.215
RS-15 23 Jan 12:21:23 12:28:23 16° 358° (N) 12:35:14 29.354- 29.394
DUCHIFAT 1 23 Jan 12:29:31 12:31:57 15° 267° (W) 12:34:24 145.980
SRMSAT 23 Jan 12:34:17 12:36:43 13° 174° (S) 12:39:08 437.500
SPROUT 23 Jan 12:47:28 12:51:38 50° 286° (WNW) 12:55:46 437.525
UKube-1 23 Jan 13:03:54 13:05:18 11° 92° (E) 13:06:43 .
SO-50 23 Jan 13:04:17 13:08:49 45° 55° (NE) 13:13:23 436.795
VELOX 1 23 Jan 13:12:37 13:16:53 52° 287° (WNW) 13:21:10 145.980
AO-7 23 Jan 13:16:14 13:23:23 33° 60° (ENE) 13:30:34 .
BUGSAT 1 23 Jan 13:19:00 13:21:48 18° 266° (W) 13:24:39 437.445
DX 1 23 Jan 13:19:50 13:23:43 31° 98° (E) 13:27:36 434.975-435.025
Oscar 19 23 Jan 13:26:37 13:31:18 34° 263° (W) 13:36:01 437.125/150
AO-91 23 Jan 13:27:12 13:29:36 18° 265° (W) 13:32:05 145.960
Gurwin Techsat 1B 23 Jan 13:35:24 13:40:19 38° 262° (W) 13:45:16 435.225
50 SAT 23 Jan 13:42:07 13:45:10 53° 101° (E) 13:48:12 437.505
MOZHAYETS 4 23 Jan 13:56:39 13:59:05 14° 92° (E) 14:01:30
SRMSAT 23 Jan 14:22:25 14:25:01 13° 185° (S) 14:27:37 437.500
BEESAT 23 Jan 14:30:20 14:33:37 18° 94° (E) 14:36:53 436.000
RS-15 23 Jan 14:36:55 14:46:45 29° 34° (NE) 14:56:07 29.354- 29.394
UKube-1 23 Jan 14:37:24 14:41:36 54° 286° (WNW) 14:45:48 .
ITAMSAT 1 23 Jan 14:38:37 14:43:40 58° 73° (ENE) 14:48:44 435.822/435.867
SO-50 23 Jan 14:45:36 14:48:57 19° 250° (WSW) 14:52:19 436.795
DX 1 23 Jan 14:56:26 14:59:40 21° 292° (WNW) 15:02:54 434.975-435.025
M-CUBED/EXP-1 PRIME 23 Jan 14:58:12 15:01:29 22° 65° (ENE) 15:04:38 437.505
AO-7 23 Jan 15:07:36 15:15:42 55° 257° (WSW) 15:23:54 .
DOVE 4 23 Jan 15:09:41 15:13:05 24° 70° (ENE) 15:16:26 437.250
ITUPSAT 1 23 Jan 15:29:09 15:33:59 76° 102° (ESE) 15:38:46 437.325
MOZHAYETS 4 23 Jan 15:32:01 15:36:29 50° 287° (WNW) 15:40:55
NO-84 23 Jan 15:35:43 15:38:58 88° 307° (NW) 15:42:00 435.350 FM
CUBESAT XI-V 23 Jan 15:42:55 15:47:23 49° 99° (E) 15:51:49 437.345
HO-68 23 Jan 15:59:35 16:01:13 11° 52° (NE) 16:02:50 435.675
XW-2D 23 Jan 16:02:01 16:02:59 11° 66° (ENE) 16:03:58 145.860 - 145.880
BEESAT 23 Jan 16:07:01 16:11:32 42° 288° (WNW) 16:16:01 436.000
XW-2B 23 Jan 16:18:08 16:20:35 17° 68° (ENE) 16:23:02 145.730 - 145.750
ITAMSAT 1 23 Jan 16:20:34 16:23:28 15° 268° (W) 16:26:22 435.822/435.867
M-CUBED/EXP-1 PRIME 23 Jan 16:31:55 16:35:41 29° 257° (WSW) 16:39:17 437.505
CUTE-I 23 Jan 16:33:58 16:38:26 28° 68° (ENE) 16:42:55 437.470
KKS-1 23 Jan 16:39:18 16:43:02 26° 96° (E) 16:46:47 437.445
DOVE 4 23 Jan 16:47:15 16:50:42 24° 264° (W) 16:54:05 437.250
XW-2C 23 Jan 16:47:23 16:50:57 38° 73° (ENE) 16:54:31 145.795 - 145.815
STARS 23 Jan 16:48:18 16:49:51 12° 92° (E) 16:51:25 437.465
LilacSat-2 23 Jan 16:49:02 16:52:43 45° 74° (ENE) 16:56:24 437.200
RS-15 23 Jan 16:49:18 17:01:02 88° 60° (ENE) 17:12:08 29.354- 29.394
CUTE 1.7 + AOD 2 23 Jan 16:54:59 16:57:09 14° 66° (ENE) 16:59:21 437.475
ITUPSAT 1 23 Jan 17:09:40 17:11:06 11° 299° (WNW) 17:12:33 437.325
KAITUO 1B 23 Jan 17:13:18 17:17:00 57° 76° (ENE) 17:20:41 145.475/437.950
BEESAT 3 23 Jan 17:15:27 17:19:10 40° 55° (NE) 17:22:47 437.485
NUDT-PHONESAT 23 Jan 17:18:30 17:22:12 63° 76° (ENE) 17:25:53 437.300
XW-2F 23 Jan 17:20:23 17:24:12 82° 258° (WSW) 17:28:01 145.980 - 146.000
CUBESAT XI-V 23 Jan 17:21:40 17:24:18 15° 295° (WNW) 17:26:55 437.345
XW-2D 23 Jan 17:32:59 17:36:41 48° 261° (W) 17:40:24 145.860 - 145.880
CUBEBUG 2 23 Jan 17:37:16 17:40:58 27° 69° (ENE) 17:44:48 437.445
UWE-3 23 Jan 17:37:19 17:39:57 16° 65° (ENE) 17:42:37 435.000/436.395/437.385
HO-68 23 Jan 17:40:30 17:47:32 64° 70° (ENE) 17:54:36 435.675
AAUSAT CUBESAT 2 23 Jan 17:44:36 17:46:02 12° 65° (ENE) 17:47:27 437.432
XW-2B 23 Jan 17:51:06 17:54:29 30° 263° (W) 17:57:52 145.730 - 145.750
ZACube-1 23 Jan 17:54:51 17:56:39 12° 64° (ENE) 17:58:26 437.345
AO-73 23 Jan 17:59:43 18:01:26 12° 64° (ENE) 18:03:10 145.935
PCSat 23 Jan 18:00:08 18:05:29 56° 60° (ENE) 18:10:47 145.827
SEEDS 23 Jan 18:09:35 18:13:43 58° 75° (ENE) 18:17:51 437.485
BEESAT 2 23 Jan 18:11:00 18:14:49 41° 55° (NE) 18:18:34 435.950
AO-85 23 Jan 18:11:28 18:12:37 11° 41° (NE) 18:13:46 145.980
CUTE-I 23 Jan 18:13:36 18:18:20 33° 263° (W) 18:23:06 437.470
KKS-1 23 Jan 18:15:48 18:19:29 26° 291° (WNW) 18:23:10 437.445
STRAND 1 23 Jan 18:18:15 18:21:34 17° 93° (E) 18:24:52 437.568
STARS 23 Jan 18:22:09 18:26:29 56° 287° (WNW) 18:30:48 437.465
XW-2C 23 Jan 18:23:37 18:25:15 12° 268° (W) 18:26:54 145.795 - 145.815
XW-2A 23 Jan 18:24:28 18:27:14 24° 72° (ENE) 18:30:01 145.665 - 145.685
LilacSat-2 23 Jan 18:26:11 18:27:11 11° 268° (W) 18:28:10 437.200
CUTE 1.7 + AOD 2 23 Jan 18:28:27 18:32:33 46° 261° (W) 18:36:41 437.475
Oscar 11 23 Jan 18:28:39 18:31:07 15° 66° (ENE) 18:33:35 .
nSIGHT-1 23 Jan 18:36:01 18:39:04 50° 136° (SE) 18:42:08 .
BEESAT 3 23 Jan 18:54:12 18:56:17 14° 251° (WSW) 18:58:22 437.485
ISS 23 Jan 19:02:02 19:05:14 63° 137° (SE) 19:08:28 437.550
RS-15 23 Jan 19:04:06 19:11:43 21° 261° (W) 19:19:11 29.354- 29.394
UWE-3 23 Jan 19:11:40 19:15:56 47° 261° (W) 19:20:21 435.000/436.395/437.385
CUBEBUG 2 23 Jan 19:13:53 19:17:30 25° 266° (W) 19:21:13 437.445
AAUSAT CUBESAT 2 23 Jan 19:16:56 19:20:58 53° 261° (W) 19:25:00 437.432
ZACube-1 23 Jan 19:27:55 19:32:19 62° 260° (W) 19:36:50 437.345
HO-68 23 Jan 19:30:26 19:35:41 22° 267° (W) 19:40:59 435.675
FO-29 23 Jan 19:31:11 19:35:58 37° 98° (E) 19:40:54 435.910
AO-73 23 Jan 19:32:39 19:37:03 63° 259° (W) 19:41:34 145.935
PCSat 23 Jan 19:44:50 19:48:22 18° 255° (WSW) 19:51:54 145.827
AO-85 23 Jan 19:48:53 19:53:53 65° 58° (ENE) 19:59:09 145.980
BEESAT 2 23 Jan 19:49:56 19:52:08 14° 251° (WSW) 19:54:18 435.950
STRAND 1 23 Jan 19:56:01 20:01:00 51° 287° (WNW) 20:05:57 437.568
XW-2A 23 Jan 19:57:45 19:59:53 16° 266° (W) 20:02:01 145.665 - 145.685
Oscar 11 23 Jan 20:02:40 20:06:50 45° 262° (W) 20:11:01 .
nSIGHT-1 23 Jan 20:13:06 20:15:25 19° 333° (NNW) 20:17:44 .
UNISAT 6 23 Jan 20:26:40 20:28:56 13° 91° (E) 20:31:10 437.425
ISS 23 Jan 20:39:42 20:41:59 17° 335° (NNW) 20:44:16 437.550
Max Valier Satellite 23 Jan 20:56:22 21:00:05 87° 77° (ENE) 21:03:51 145.860
DELFI C3 23 Jan 20:57:59 21:01:48 56° 260° (W) 21:05:39 145.870
EO-88 23 Jan 21:07:20 21:10:58 75° 77° (ENE) 21:14:37 145.990 - 145.960
ESTCUBE 1 23 Jan 21:14:29 21:14:48 10° 63° (ENE) 21:15:07 437.505/2401.250
FO-29 23 Jan 21:16:54 21:20:53 23° 293° (WNW) 21:24:59 435.910
YUBILEINY 23 Jan 21:17:14 21:24:03 26° 82° (E) 21:30:49 435.215
AO-85 23 Jan 21:30:55 21:33:53 15° 252° (WSW) 21:36:54 145.980
TIGRISAT 23 Jan 21:44:59 21:49:43 89° 102° (ESE) 21:54:23 435.000
UNISAT 6 23 Jan 22:01:19 22:05:55 55° 286° (WNW) 22:10:28 437.425
NO-84 23 Jan 22:10:07 22:12:12 18° 36° (NE) 22:14:19 435.350 FM
LO-87 23 Jan 22:16:02 22:19:32 60° 76° (ENE) 22:23:05 145.935 - 145.965
EO-79 23 Jan 22:45:24 22:46:52 11° 91° (E) 22:48:19 145.935-145.965
O/OREOS (USA 219) 23 Jan 22:45:30 22:49:08 25° 102° (ESE) 22:52:47 437.305
ESTCUBE 1 23 Jan 22:46:26 22:50:56 75° 259° (W) 22:55:28 437.505/2401.250
PRISM 23 Jan 22:47:16 22:51:21 81° 284° (WNW) 22:55:26 437.425
YUBILEINY 23 Jan 23:11:24 23:20:06 63° 280° (W) 23:28:50 435.215
AIST 2D 23 Jan 23:15:34 23:19:00 67° 283° (WNW) 23:22:25 435.315
POLYITAN 1 23 Jan 23:19:20 23:23:06 29° 97° (E) 23:26:50 437.675
NANOSAT C BR1 23 Jan 23:31:32 23:35:29 35° 98° (E) 23:39:23 145.865
SPROUT 23 Jan 23:38:05 23:42:20 88° 266° (W) 23:46:37 437.525
NO-84 23 Jan 23:46:51 23:49:20 27° 231° (SW) 23:51:56 435.350 FM
QB50P2 23 Jan 23:48:58 23:53:16 77° 103° (ESE) 23:57:31 145.880/145.840
VELOX 1 24 Jan 00:07:19 00:11:41 77° 257° (WSW) 00:16:05 145.980
DUCHIFAT 1 24 Jan 00:12:59 00:17:16 84° 282° (WNW) 00:21:30 145.980
DX 1 24 Jan 00:13:48 00:17:08 22° 68° (ENE) 00:20:28 434.975-435.025
Gurwin Techsat 1B 24 Jan 00:17:40 00:17:48 10° 89° (E) 00:17:57 435.225
EO-79 24 Jan 00:18:43 00:22:53 53° 286° (WNW) 00:27:02 145.935-145.965
O/OREOS (USA 219) 24 Jan 00:24:32 00:28:24 28° 298° (WNW) 00:32:16 437.305
POLYITAN 1 24 Jan 00:55:25 00:58:40 21° 292° (WNW) 01:01:54 437.675
MOZHAYETS 4 24 Jan 00:57:41 00:59:23 12° 63° (ENE) 01:01:04
BUGSAT 1 24 Jan 01:00:44 01:05:00 72° 102° (ESE) 01:09:13 437.445
nSIGHT-1 24 Jan 01:04:16 01:07:07 29° 32° (NNE) 01:09:57 .
NANOSAT C BR1 24 Jan 01:08:01 01:10:52 18° 293° (WNW) 01:13:43 145.865
AO-91 24 Jan 01:15:34 01:20:17 74° 102° (ESE) 01:25:25 145.960
YUBILEINY 24 Jan 01:17:55 01:18:52 10° 302° (WNW) 01:19:48 435.215
UKube-1 24 Jan 01:29:18 01:33:35 85° 255° (WSW) 01:37:55 .
ISS 24 Jan 01:31:33 01:34:38 36° 34° (NE) 01:37:41 437.550
BEESAT 24 Jan 01:35:09 01:38:20 18° 65° (ENE) 01:41:31 436.000
50 SAT 24 Jan 01:35:52 01:38:37 30° 262° (W) 01:41:23 437.505
Oscar 19 24 Jan 01:39:27 01:44:38 84° 284° (WNW) 01:49:45 437.125/150
DX 1 24 Jan 01:49:22 01:53:08 29° 263° (W) 01:56:54 434.975-435.025
Gurwin Techsat 1B 24 Jan 01:53:00 01:58:21 84° 282° (WNW) 02:03:39 435.225
FALCONSAT 3 24 Jan 02:02:18 02:05:26 27° 159° (SSE) 02:08:35 435.103
MOZHAYETS 4 24 Jan 02:31:19 02:35:55 67° 259° (W) 02:40:33
ITUPSAT 1 24 Jan 02:33:40 02:38:24 71° 75° (ENE) 02:43:11 437.325
nSIGHT-1 24 Jan 02:40:33 02:43:11 24° 228° (SW) 02:45:49 .
CUBESAT XI-V 24 Jan 02:44:00 02:48:22 39° 72° (ENE) 02:52:42 437.345
ITAMSAT 1 24 Jan 02:53:58 02:58:06 23° 95° (E) 03:02:12 435.822/435.867
AO-91 24 Jan 02:54:28 02:56:14 12° 294° (WNW) 02:58:04 145.960
ISS 24 Jan 03:08:27 03:10:55 20° 229° (SW) 03:13:25 437.550
BEESAT 24 Jan 03:11:11 03:15:43 45° 261° (W) 03:20:18 436.000
SO-50 24 Jan 03:17:43 03:21:00 21° 111° (ESE) 03:24:21 436.795
